Location: Macksville High School
(37.9611°N, 99.9654°W)
Time: 01:53:48
(UTC+00:00)

YAOGAN 6 - Pass Details

Date: 17 January 2021
Orbit: 464 x 503 km, 97.0° (Epoch: 07 March)

Event Time Altitude Azimuth Distance (km) Brightness Sun altitude
Rises 11:57:45 0° 21° (NNE) 2,601 6.4 -22.6°
Reaches altitude 10° 11:59:58 10° 30° (NNE) 1,715 5.6 -22.1°
Maximum altitude 12:03:23 35° 97° (E) 832 4.3 -21.5°
Drops below altitude 10° 12:06:47 10° 165° (SSE) 1,707 5.6 -20.8°
Sets 12:08:58 0° 174° (S) 2,585 6.5 -20.4°
